Location: Boulder, CO
(40.0083°N, 105.2472°W)
Time: 14:32:24
(UTC-07:00)

SORCE - Visible Passes

Search period start: 20 December 2014 00:00
Search period end: 30 December 2014 00:00
Orbit: 591 x 624 km, 40.0° (Epoch: 20 December)

Date Brightness Start Highest point End Pass type
(mag) Time Alt. Az. Time Alt. Az. Time Alt. Az.
20 Dec 8.7 19:14:23 10° S 19:14:25 10° S 19:14:25 10° S visible
21 Dec 8.5 19:26:03 10° SSW 19:26:51 14° SSW 19:26:51 14° SSW visible
22 Dec 8.2 17:59:31 10° SSE 18:01:12 12° SE 18:02:25 11° SE visible
22 Dec 8.6 19:38:16 10° SW 19:39:15 16° SW 19:39:15 16° SW visible
23 Dec 7.6 18:10:21 10° SSW 18:13:39 21° SSE 18:14:45 19° SE visible
23 Dec 8.8 19:50:47 10° WSW 19:51:34 15° WSW 19:51:34 15° WSW visible
24 Dec 7.0 18:22:13 10° SW 18:26:12 33° SSE 18:27:02 30° SE visible
24 Dec 9.1 20:03:28 10° WSW 20:03:51 12° WSW 20:03:51 12° WSW visible
25 Dec 6.3 18:34:32 10° SW 18:38:49 49° SSE 18:39:15 47° SE visible
26 Dec 7.6 17:06:20 10° SSW 17:09:54 24° SSE 17:13:30 10° E visible
26 Dec 6.0 18:47:06 10° WSW 18:51:26 68° S 18:51:26 68° S visible
27 Dec 6.9 17:18:21 10° SW 17:22:27 38° SSE 17:26:34 10° E visible
27 Dec 6.3 18:59:47 10° W 19:03:35 64° WSW 19:03:35 64° WSW visible
28 Dec 6.4 17:30:44 10° WSW 17:35:04 56° SSE 17:38:55 13° E visible
28 Dec 6.9 19:12:33 10° W 19:15:43 47° W 19:15:43 47° W visible
29 Dec 6.0 17:43:20 10° WSW 17:47:45 75° SSE 17:51:02 18° E visible
29 Dec 7.5 19:25:18 10° W 19:27:51 34° W 19:27:51 34° W visible
